Japanese version Home page |
Updated on November 15, 2021 |
|
Orbital ElementsEpoch 2014 Apr. 13.0 TT = JDT 2456760.5 T 2014 Apr. 21.23013 TT MPCW q 1.6608416 (2000.0) P Q z -0.0008140 Peri. 48.03301 -0.09908926 -0.48660255 Node 72.80993 +0.40161638 -0.81763448 e 1.0013518 Incl. 65.30876 +0.91043155 +0.30772035 From 2017 observations 2013 Nov. 4-2014 Aug. 31, mean residual 0".5. Nongravitational parameters A1 = +2.83, A2 = +0.3435.
|
Finding Charts
|
Magnitudes Graphm1 = 10.0 + 5 log d + 10.0 log r
|
The orbital elements are published on M.P.E.C. 2015-B177.
|